Wind_Speed
36 36 36 36 35 34 33 29 25 23 21 19 18 16 14 13 12 12 12 11 12 12 13 12 12 12 14 14 14 15 16 16 18 18 18 19 20 20 22 24 25 27 28 27 26
35 37 37 36 35 35 34 33 31 29 27 25 21 20 18 16 19 17 16 15 15 15 15 14 14 14 15 16 17 18 20 21 22 22 22 23 25 25 26 28 29 29 29 28 26
33 35 36 36 37 37 36 34 33 31 30 30 27 24 22 21 21 22 21 22 21 20 19 18 18 18 19 21 23 23 24 26 26 27 28 28 30 29 29 29 28 28 28 27 26
30 31 32 33 35 35 35 33 32 31 30 30 29 28 25 26 25 24 25 26 27 26 25 24 24 25 26 26 28 28 29 30 31 32 32 32 31 29 28 28 29 28 28 27 26
23 25 28 29 30 31 31 31 30 30 30 30 30 30 28 28 29 29 28 28 28 28 29 30 30 31 31 31 32 32 33 34 34 33 31 29 29 31 31 30 30 28 26 24 20
19 20 21 23 24 26 27 29 29 29 29 29 30 31 29 28 29 32 32 32 31 30 30 31 31 31 31 32 33 33 33 33 33 32 32 31 31 32 32 31 30 27 24 20 18
17 18 19 21 23 24 25 26 27 29 30 30 31 32 31 30 29 30 33 35 35 34 34 34 34 34 35 36 36 36 36 36 36 36 34 33 33 35 34 33 30 27 22 20 17
16 16 16 16 17 19 21 24 26 27 28 29 30 32 34 31 31 32 33 33 34 36 36 36 36 37 37 37 36 37 37 36 35 37 38 37 37 36 35 33 30 26 23 21 18
21 21 21 20 19 20 20 19 20 21 24 27 30 33 36 36 35 36 36 36 35 36 36 37 37 37 38 38 38 36 36 34 31 30 35 36 35 34 34 31 27 26 26 21 14
22 22 21 21 22 23 23 22 22 21 21 21 21 24 27 29 32 35 36 38 39 40 40 40 40 40 41 40 38 36 34 34 31 27 29 32 31 29 28 28 28 30 24 15 7
23 21 23 24 24 24 22 21 21 21 22 23 23 23 24 24 25 24 24 25 30 34 36 37 39 40 39 38 36 36 36 35 34 32 30 30 26 23 25 26 22 20 20 15 10
23 22 21 22 23 24 24 24 25 25 23 22 21 21 23 24 25 25 24 24 24 24 24 25 25 26 26 27 28 29 29 31 30 33 31 30 29 26 26 22 14 9 9 9 8
29 28 27 26 25 24 25 24 24 24 23 26 26 26 25 24 24 24 24 25 25 26 25 25 24 24 25 26 26 28 30 32 29 30 28 28 28 25 20 13 11 8 8 7 6
36 35 33 33 31 30 27 27 28 26 26 24 24 24 28 32 31 31 30 30 28 27 28 28 27 27 26 26 29 30 29 30 26 21 24 22 23 19 14 11 10 8 10 9 7
43 42 40 38 37 36 34 32 31 31 30 27 25 27 29 30 30 31 33 34 33 31 30 30 29 28 27 27 28 25 22 23 18 17 17 16 16 15 12 12 11 11 12 13 11
47 46 46 44 42 41 38 37 35 32 30 31 30 29 30 31 30 29 30 30 30 30 30 30 30 28 26 26 23 20 19 18 14 13 12 13 13 14 14 14 14 15 15 15 18
47 46 45 44 43 44 41 40 38 35 33 31 33 33 31 32 32 30 29 29 28 27 27 28 28 27 22 20 20 17 15 14 11 11 13 14 13 14 15 15 16 17 17 17 21
48 47 47 46 44 44 43 42 40 37 33 33 35 37 35 33 32 31 29 28 28 27 27 27 26 22 18 17 18 17 13 10 8 10 13 15 16 18 17 17 18 17 15 18 20
55 51 51 47 49 48 47 44 41 39 39 38 40 39 36 34 34 33 31 29 28 29 28 24 24 20 18 17 18 16 12 10 8 8 11 13 14 15 16 16 12 13 15 17 22
58 56 56 55 53 51 49 46 44 43 43 42 42 39 37 37 36 34 31 30 28 30 28 22 23 19 17 18 16 15 13 11 10 9 12 13 14 14 15 16 15 13 16 13 19
59 61 60 59 57 55 54 48 45 44 44 44 41 39 37 37 36 34 31 31 32 33 26 21 21 19 18 17 16 13 11 10 9 10 12 14 14 14 15 17 18 17 16 18 18
62 59 57 58 56 55 52 47 43 43 42 41 38 36 36 37 35 33 28 32 32 26 21 19 19 19 18 18 16 14 13 14 14 13 15 16 16 17 19 20 21 24 26 23 21
51 52 51 51 50 50 48 44 42 40 39 40 37 36 37 35 34 27 28 29 27 25 20 19 20 20 18 18 18 15 15 17 17 16 14 14 15 15 17 20 21 24 26 27 29
45 48 48 45 46 45 44 41 38 38 38 37 36 34 35 33 30 24 26 27 24 24 17 21 20 20 19 18 19 19 19 19 18 15 14 15 17 20 21 24 26 29 31 32 33
37 39 40 42 42 42 39 36 35 37 35 35 34 33 32 30 29 24 27 23 22 20 21 21 22 23 20 21 19 19 21 20 17 17 19 22 24 27 30 32 34 36 38 40 42
30 32 32 33 33 33 33 34 34 34 34 34 31 29 28 29 28 26 27 22 23 23 24 26 28 25 21 17 16 19 19 17 20 23 27 29 31 34 35 37 38 40 42 44 46
24 27 28 29 29 29 32 33 32 31 31 27 27 25 27 24 23 27 24 23 24 26 27 26 26 24 21 19 20 23 21 25 28 30 31 33 36 37 39 40 40 43 44 45 48
Wind_Direction
241 242 243 244 248 252 257 258 259 256 254 252 253 254 250 239 240 235 231 226 234 231 234 237 244 250 257 265 272 279 285 289 289 292 296 293 288 288 300 300 298 298 302 305 311
241 243 244 245 248 250 253 256 257 256 254 252 248 248 247 244 246 245 248 243 241 247 250 253 255 262 269 277 280 283 285 288 291 293 294 298 299 300 301 304 305 306 307 308 308
242 243 245 248 250 251 252 255 256 256 252 249 249 247 246 245 247 249 249 251 252 253 255 260 266 270 274 276 279 280 286 289 294 298 298 300 302 304 305 306 306 308 308 308 305
248 247 247 248 249 250 251 252 251 252 250 246 246 247 243 243 244 247 249 254 257 258 261 263 264 266 268 271 278 285 288 292 295 297 298 302 305 306 307 309 308 312 316 311 307
245 246 247 248 250 251 250 249 250 248 248 244 244 245 247 243 241 244 247 250 255 260 264 268 270 272 275 279 281 284 287 290 293 296 299 301 304 304 308 309 309 314 311 308 307
248 248 248 247 247 248 249 248 247 247 247 247 246 245 247 247 245 246 248 250 253 257 262 265 270 275 277 281 284 287 289 290 292 294 296 299 299 301 305 308 309 311 311 307 302
246 248 248 249 250 250 251 251 249 248 247 248 247 246 247 248 248 247 249 251 254 257 259 263 267 271 274 277 279 282 285 286 286 287 289 291 294 298 302 305 309 309 312 307 301
237 242 245 248 249 250 251 252 252 251 250 248 248 249 253 251 250 250 251 252 254 256 258 262 264 266 269 274 278 282 283 285 286 281 282 285 289 293 298 301 303 304 303 303 295
241 244 246 248 248 249 250 252 254 255 255 255 254 253 256 259 257 257 257 257 257 259 260 261 262 264 267 271 275 278 280 283 288 287 282 282 286 289 295 298 301 302 306 303 286
242 246 247 250 250 250 252 254 255 255 255 256 257 258 261 262 262 261 262 263 263 262 262 263 265 268 270 272 274 275 275 279 281 281 281 281 282 293 301 301 308 315 307 289 272
242 245 248 252 252 253 253 255 256 256 257 258 259 260 263 265 267 268 267 267 265 266 267 268 268 270 271 273 275 274 275 276 277 277 278 285 286 293 295 303 316 326 320 314 302
239 243 245 250 253 255 256 257 256 258 258 260 261 265 267 264 267 269 269 268 268 269 268 270 273 276 277 276 274 276 276 275 276 276 277 279 284 286 290 293 294 295 309 307 297
243 247 251 253 255 257 260 261 257 257 257 258 259 260 262 265 266 266 267 267 268 269 271 272 274 273 272 273 274 274 276 277 275 276 277 278 280 285 287 276 282 294 298 278 274
246 247 251 255 258 260 261 260 260 257 258 263 267 268 263 260 260 264 267 268 268 268 268 270 269 269 273 277 278 278 278 273 274 269 273 274 278 281 278 267 267 278 268 246 247
247 249 251 253 256 258 260 261 262 260 262 262 269 275 270 267 265 264 265 266 266 264 265 267 271 275 279 282 283 281 271 266 268 259 261 264 267 269 266 261 263 260 263 244 231
246 248 251 253 256 256 256 259 262 264 265 262 265 280 273 265 264 264 267 269 270 269 265 264 267 272 279 283 278 267 259 259 252 243 247 249 251 256 258 257 252 253 255 244 238
247 248 249 251 253 256 256 256 260 264 265 268 268 274 275 267 264 264 266 268 268 264 265 264 265 270 275 272 266 260 255 254 247 231 231 232 234 243 250 250 248 244 245 244 229
247 249 250 251 251 254 257 258 260 260 261 267 272 273 277 266 261 263 264 264 264 263 265 265 266 267 266 257 257 257 251 248 239 223 225 233 227 231 236 240 244 250 239 234 230
246 248 252 252 254 255 257 258 259 260 262 268 272 274 271 261 257 259 262 262 264 266 266 262 260 254 245 244 243 250 244 234 224 219 233 243 247 248 255 257 254 259 263 234 222
246 247 249 252 253 254 255 257 258 261 264 268 270 266 260 256 255 257 259 259 259 260 259 254 249 245 241 243 244 243 241 235 230 224 236 240 244 249 251 253 256 263 274 265 242
245 247 250 250 251 252 252 256 258 259 263 266 261 258 252 252 254 258 256 257 260 255 246 243 237 238 238 239 238 237 234 242 226 213 224 232 239 245 239 244 259 260 249 259 263
245 246 247 246 247 248 250 253 254 258 259 255 251 250 250 249 252 256 253 259 255 247 238 233 226 227 227 233 231 233 224 225 232 231 233 240 244 244 256 264 270 277 285 280 257
241 240 242 241 241 245 248 247 249 251 246 246 245 245 248 250 252 247 250 245 243 242 234 214 215 219 221 221 228 224 223 235 244 244 241 244 254 249 253 261 262 266 272 276 280
237 236 237 238 238 241 243 246 244 239 238 243 245 243 245 249 249 246 239 241 240 231 208 204 208 220 211 213 211 225 236 236 235 241 253 264 274 276 273 270 267 267 267 269 271
230 231 232 234 235 237 237 234 230 234 237 238 239 242 244 244 247 235 239 234 226 210 190 199 205 213 211 211 220 230 236 241 247 254 262 267 268 271 272 270 271 269 269 270 271
223 224 223 224 224 223 223 223 226 230 236 238 241 241 243 245 239 236 234 226 212 197 191 200 204 211 212 220 232 243 246 263 270 275 279 282 283 282 282 281 279 278 276 274 272
215 213 212 213 214 214 218 224 226 231 239 239 239 241 241 247 237 227 228 206 198 195 197 201 201 204 212 217 233 246 252 259 265 272 276 278 279 281 282 280 279 279 278 278 275
Height
10956 10959 10962 10965 10967 10969 10971 10974 10976 10978 10980 10982 10983 10985 10987 10989 10988 10989 10989 10992 10992 10994 10995 10997 10998 10999 10998 10998 10998 10998 10998 10997 10997 10996 10997 10997 10996 10995 10994 10992 10990 10988 10986 10984 10982
10950 10953 10956 10959 10961 10964 10966 10969 10971 10973 10975 10977 10979 10982 10984 10987 10986 10987 10987 10989 10990 10991 10993 10994 10996 10997 10996 10996 10995 10995 10994 10994 10993 10994 10993 10992 10991 10990 10989 10986 10983 10981 10979 10978 10978
10944 10947 10949 10952 10955 10958 10960 10963 10965 10967 10970 10972 10974 10977 10981 10983 10983 10984 10984 10985 10987 10989 10990 10991 10993 10993 10993 10992 10991 10991 10991 10990 10989 10988 10988 10987 10985 10983 10982 10980 10979 10977 10974 10973 10972
10939 10942 10944 10946 10949 10951 10954 10957 10959 10962 10964 10966 10969 10971 10976 10978 10980 10981 10981 10981 10981 10984 10986 10988 10989 10990 10989 10989 10988 10987 10986 10985 10984 10983 10982 10981 10979 10977 10976 10975 10973 10972 10968 10966 10965
10934 10936 10939 10941 10943 10945 10948 10951 10954 10956 10958 10961 10963 10965 10970 10972 10975 10976 10977 10978 10978 10979 10982 10983 10983 10984 10984 10984 10983 10982 10981 10980 10979 10978 10978 10976 10974 10972 10971 10971 10968 10967 10965 10962 10960
10930 10932 10934 10936 10938 10940 10943 10946 10948 10951 10953 10955 10957 10959 10964 10966 10969 10970 10971 10973 10975 10977 10977 10978 10978 10978 10979 10978 10978 10977 10975 10975 10973 10973 10972 10971 10969 10967 10966 10965 10963 10962 10961 10957 10956
10927 10928 10930 10932 10934 10936 10938 10940 10943 10945 10947 10949 10951 10953 10956 10961 10963 10964 10965 10967 10970 10971 10972 10973 10974 10973 10973 10974 10973 10973 10972 10970 10969 10967 10967 10966 10964 10962 10961 10959 10957 10955 10955 10954 10952
10923 10925 10927 10929 10930 10932 10933 10935 10937 10939 10942 10944 10946 10948 10949 10954 10956 10957 10958 10960 10963 10964 10966 10967 10968 10968 10968 10967 10967 10967 10966 10964 10963 10961 10960 10960 10958 10956 10954 10953 10952 10950 10949 10949 10947
10919 10921 10923 10924 10926 10927 10929 10931 10933 10935 10937 10939 10941 10943 10943 10946 10949 10951 10952 10953 10956 10957 10958 10959 10961 10961 10961 10961 10961 10961 10959 10958 10957 10955 10951 10951 10951 10949 10949 10948 10948 10946 10944 10942 10941
10913 10916 10918 10919 10921 10922 10925 10927 10929 10931 10932 10934 10936 10937 10938 10939 10940 10942 10943 10946 10948 10949 10950 10951 10952 10952 10953 10954 10954 10954 10953 10951 10951 10950 10946 10943 10946 10948 10946 10943 10944 10942 10939 10938 10938
10908 10910 10912 10913 10915 10918 10920 10922 10924 10926 10928 10929 10931 10932 10933 10934 10934 10935 10936 10939 10939 10940 10941 10942 10943 10944 10944 10945 10945 10944 10944 10944 10943 10943 10941 10940 10941 10943 10940 10938 10938 10937 10937 10937 10936
10902 10904 10906 10908 10910 10912 10915 10917 10919 10921 10923 10924 10926 10927 10927 10929 10929 10929 10930 10932 10933 10934 10934 10935 10936 10937 10937 10937 10937 10937 10937 10935 10936 10933 10934 10934 10934 10935 10934 10933 10932 10931 10932 10932 10934
10896 10898 10900 10902 10905 10907 10909 10911 10913 10915 10918 10919 10920 10921 10921 10923 10924 10924 10925 10926 10927 10927 10929 10930 10931 10931 10931 10931 10931 10930 10929 10927 10929 10926 10927 10927 10927 10928 10929 10928 10928 10929 10929 10930 10930
10888 10891 10893 10895 10898 10900 10903 10905 10907 10910 10912 10914 10915 10914 10914 10915 10917 10917 10917 10919 10921 10922 10922 10922 10923 10924 10925 10924 10923 10923 10922 10919 10922 10922 10921 10921 10920 10921 10922 10923 10924 10926 10926 10927 10928
10879 10882 10884 10887 10890 10893 10896 10898 10900 10903 10906 10909 10908 10907 10907 10908 10909 10909 10910 10910 10912 10915 10915 10914 10914 10915 10916 10916 10914 10914 10913 10913 10915 10916 10916 10916 10916 10916 10917 10919 10921 10923 10923 10924 10925
10869 10872 10874 10878 10881 10884 10888 10890 10892 10895 10898 10900 10902 10901 10900 10900 10901 10902 10903 10902 10904 10905 10906 10906 10906 10908 10909 10908 10907 10907 10907 10908 10910 10911 10912 10912 10913 10912 10913 10915 10918 10919 10920 10922 10924
10857 10861 10864 10868 10872 10873 10878 10882 10884 10888 10890 10892 10892 10892 10893 10893 10893 10895 10896 10896 10896 10897 10898 10899 10900 10901 10902 10901 10900 10901 10903 10904 10906 10908 10908 10908 10909 10909 10908 10910 10911 10914 10917 10918 10920
10846 10849 10853 10857 10861 10864 10867 10872 10876 10879 10882 10883 10882 10883 10885 10886 10886 10887 10889 10889 10889 10890 10891 10893 10894 10895 10896 10896 10896 10896 10898 10901 10904 10905 10905 10904 10904 10904 10905 10906 10907 10909 10911 10912 10914
10833 10838 10841 10847 10849 10854 10857 10861 10866 10870 10871 10873 10873 10874 10875 10877 10878 10879 10881 10883 10883 10883 10885 10887 10888 10889 10890 10891 10892 10893 10895 10897 10899 10901 10902 10902 10903 10904 10904 10905 10907 10908 10908 10909 10909
10819 10825 10829 10834 10838 10842 10846 10851 10856 10858 10861 10863 10863 10865 10864 10867 10869 10872 10874 10875 10875 10875 10877 10882 10883 10884 10886 10887 10889 10890 10892 10894 10896 10898 10898 10898 10900 10901 10902 10903 10905 10906 10906 10908 10910
10805 10810 10815 10820 10825 10830 10834 10841 10846 10848 10851 10852 10852 10853 10855 10858 10861 10863 10865 10866 10867 10867 10871 10876 10879 10881 10882 10884 10885 10887 10889 10891 10894 10895 10896 10896 10897 10898 10899 10900 10901 10901 10903 10904 10905
10789 10796 10800 10806 10813 10817 10823 10831 10836 10838 10839 10840 10842 10844 10846 10849 10853 10855 10858 10858 10858 10862 10867 10871 10874 10877 10879 10880 10882 10884 10886 10887 10889 10892 10894 10895 10897 10898 10897 10898 10899 10899 10898 10898 10900
10776 10782 10787 10794 10801 10806 10812 10819 10824 10827 10827 10827 10832 10835 10837 10841 10844 10848 10850 10850 10854 10858 10863 10867 10870 10872 10875 10877 10879 10881 10883 10885 10887 10888 10889 10891 10893 10895 10895 10895 10896 10895 10894 10894 10893
10763 10769 10776 10784 10790 10796 10801 10808 10813 10815 10817 10820 10823 10827 10830 10833 10836 10841 10843 10845 10849 10853 10859 10863 10866 10868 10871 10873 10876 10878 10880 10881 10883 10885 10886 10887 10888 10888 10890 10890 10890 10889 10889 10889 10888
10752 10759 10767 10773 10779 10786 10792 10798 10803 10805 10810 10812 10815 10820 10823 10827 10830 10834 10837 10840 10844 10850 10855 10858 10861 10863 10867 10870 10873 10874 10875 10877 10879 10880 10881 10881 10883 10883 10882 10882 10882 10881 10881 10880 10879
10746 10752 10759 10765 10771 10778 10783 10788 10794 10797 10801 10805 10810 10814 10818 10820 10824 10828 10831 10837 10841 10847 10850 10853 10857 10861 10864 10867 10868 10868 10870 10872 10872 10873 10874 10874 10874 10873 10872 10871 10871 10870 10869 10868 10866
10742 10747 10753 10760 10765 10771 10776 10781 10787 10792 10796 10801 10805 10809 10812 10816 10819 10823 10828 10833 10838 10841 10846 10851 10855 10860 10862 10864 10864 10864 10867 10867 10867 10867 10867 10867 10865 10864 10861 10860 10860 10857 10855 10854 10851